Tracking 35035 objects as of 16-Aug-2026
HD Live streaming from Space Station
objects crossing your sky now

STARLINK-11490

Track STARLINK-11490 now!
10-day predictions
STARLINK-11490 is classified as:


NORAD ID: 62219
Int'l Code: 2024-231B
Launch date: December 5, 2024
Source: United States (US)
Launch site: AIR FORCE WESTERN TEST RANGE (AFWTR)
Your satellite tracking list
Your tracking list is empty




NASA's NSSDC Master Catalog

Two Line Element Set (TLE):
1 62219U 24231B   26228.64660793  .00123214  00000-0  10030-2 0  9992
2 62219  53.1576  32.8050 0000642 116.1080 244.0004 15.69802011 98538
Source of the keplerian elements: AFSPC